Wind_Speed
20 22 24 25 26 28 29 31 33 36 35 33 36 36 39 40 41 43 45 46 48 49 50 51 52 53 53 53 54 55 55 55 54 52 50 49 48 47
22 24 25 26 28 30 31 34 36 39 41 39 38 40 41 43 44 45 46 47 48 49 50 52 53 54 55 56 54 55 56 55 55 53 52 50 49 47
23 24 26 27 29 31 34 36 38 39 41 42 43 45 47 50 51 52 54 54 54 53 51 48 48 49 50 50 52 52 51 51 50 48 46 45 44 42
24 25 27 29 31 34 35 36 38 40 43 45 47 49 50 51 53 55 55 54 53 51 50 48 47 46 45 44 43 42 41 42 43 44 44 45 43 42
25 26 29 32 34 35 37 38 40 42 46 49 51 52 53 52 52 51 51 50 50 48 44 44 43 42 43 44 44 43 42 41 41 42 42 43 43 43
26 30 32 33 35 36 39 41 43 46 48 49 51 52 51 50 50 51 51 49 49 45 41 42 40 38 38 40 40 40 40 41 41 40 40 40 41 41
29 31 33 35 37 40 42 44 46 48 49 49 50 50 49 48 47 48 50 50 49 45 44 38 36 33 33 35 37 38 37 37 38 38 38 39 39 39
30 32 34 36 39 42 44 46 47 46 46 46 47 48 47 48 47 48 47 48 50 45 44 38 34 32 30 30 31 33 34 34 35 35 35 35 36 37
31 33 35 39 41 42 41 40 40 39 41 45 46 47 48 47 48 47 45 46 46 41 39 39 34 33 30 28 28 28 27 29 30 31 31 33 35 36
33 35 38 38 38 37 37 36 36 36 39 41 42 43 43 42 41 42 42 41 42 38 34 40 36 34 31 27 25 24 25 27 29 30 31 34 35 36
34 36 37 35 34 34 35 36 36 37 38 40 41 40 40 39 37 37 38 39 42 38 37 39 34 34 31 27 24 22 22 26 28 28 32 34 33 33
33 34 33 33 33 33 36 37 38 38 39 38 37 35 34 34 32 32 34 38 39 39 32 37 34 33 34 28 22 21 22 25 27 29 30 32 30 33
32 31 31 32 34 35 36 38 39 39 38 38 37 36 32 29 29 28 31 35 37 35 29 33 32 32 33 36 28 22 23 25 26 27 28 28 30 33
30 30 31 33 34 36 37 37 38 38 36 35 34 33 32 30 27 26 28 30 31 31 26 26 30 30 33 33 33 25 24 26 27 28 27 28 29 29
30 32 33 34 35 37 37 37 37 36 34 33 32 31 30 28 26 25 24 25 25 24 24 23 23 28 32 34 35 29 28 27 26 28 27 27 29 27
33 33 34 35 36 37 36 36 35 34 33 32 31 30 29 27 24 24 24 23 22 19 19 19 23 29 33 32 32 31 27 29 27 28 28 26 27 26
33 32 33 35 35 36 36 34 32 31 30 30 31 30 29 27 25 23 24 24 23 22 21 24 30 32 32 32 31 29 27 26 26 27 28 27 24 23
34 34 34 35 35 34 33 31 30 30 30 30 30 30 29 28 26 23 24 24 23 22 23 25 26 27 27 23 24 27 24 26 25 25 24 28 25 19
34 34 34 34 33 32 31 31 30 29 29 29 29 29 29 29 28 27 25 25 23 22 22 23 24 26 27 26 18 19 26 23 24 22 22 22 24 19
34 34 33 33 31 30 30 30 29 28 28 28 29 30 30 30 28 27 26 26 24 23 21 21 22 23 25 26 25 13 20 24 23 22 18 16 18 18
33 33 32 30 29 29 28 29 29 28 27 27 27 27 26 28 27 26 25 25 25 24 22 20 21 22 23 23 23 19 14 20 24 24 18 16 14 11
33 31 29 28 28 28 27 27 27 27 27 27 27 26 25 25 26 26 25 25 23 23 23 21 21 21 20 22 22 20 18 15 16 20 20 18 17 15
32 30 28 27 26 26 26 26 26 26 26 27 26 25 24 24 23 23 24 24 23 23 22 21 20 19 19 20 21 20 19 18 14 11 14 15 14 14
Wind_Direction
267 272 276 280 285 288 292 296 298 301 301 301 301 300 299 298 296 295 295 296 296 296 294 293 293 292 292 291 291 290 289 288 286 285 283 281 276 270
270 275 280 288 294 297 300 303 303 304 306 306 303 301 300 298 297 297 297 297 297 296 297 297 295 294 292 291 291 289 289 289 289 287 286 284 280 276
275 282 291 296 299 302 303 304 305 304 304 305 306 305 305 305 307 306 306 305 305 304 303 303 302 301 300 297 295 295 294 292 291 289 286 283 281 280
281 291 296 299 300 301 301 301 302 303 303 304 305 306 306 307 306 306 304 304 303 304 306 307 307 307 305 303 301 298 295 291 287 284 284 281 277 275
289 295 297 297 298 299 300 301 301 304 304 304 305 305 305 307 305 304 303 304 305 305 307 308 308 309 307 304 303 301 297 293 289 286 283 281 281 279
293 296 296 297 297 299 300 302 302 303 304 305 306 305 305 305 305 306 306 306 305 306 308 308 308 306 304 302 301 299 296 293 291 290 287 285 282 280
292 294 295 297 298 300 301 303 304 305 307 309 307 305 305 306 307 308 308 307 306 308 309 309 307 303 299 297 296 295 295 294 292 290 287 285 284 282
292 294 296 298 302 305 306 306 307 308 308 308 306 307 308 311 311 310 309 307 308 311 310 309 306 305 303 299 296 296 296 294 294 292 291 289 285 282
292 295 299 302 303 303 304 307 307 309 309 308 310 311 311 312 311 309 308 307 306 309 308 307 309 308 305 302 302 299 295 293 293 295 298 298 295 290
298 300 299 301 303 305 306 306 309 311 309 309 309 308 307 307 307 307 305 304 302 308 309 307 309 306 303 302 300 298 297 293 294 299 306 307 303 297
298 300 303 306 307 308 309 309 309 314 314 314 312 311 309 308 307 301 301 299 301 304 307 306 308 303 299 299 297 293 298 297 296 299 306 310 309 301
304 306 306 306 308 310 310 313 317 316 314 312 311 309 307 306 304 301 300 298 300 303 308 303 304 303 300 300 302 293 295 305 300 298 304 313 306 303
305 303 306 307 308 312 314 313 311 311 312 311 311 310 308 306 304 299 297 298 299 300 304 295 300 300 302 305 308 299 293 301 307 301 301 311 308 301
303 305 306 307 310 311 308 307 307 305 306 308 309 308 309 309 306 300 294 294 296 298 296 291 294 301 304 306 307 305 298 299 307 309 304 307 312 302
303 305 308 310 309 305 304 303 300 301 303 304 308 310 311 311 309 303 300 298 300 298 292 289 298 304 311 309 307 312 306 296 305 309 308 310 317 311
305 309 308 304 302 301 300 298 299 302 305 306 308 308 309 310 310 307 305 304 304 296 295 291 291 299 308 307 308 310 306 302 306 311 312 313 319 315
304 303 300 300 299 298 297 299 302 303 303 302 302 302 302 303 305 307 308 308 308 302 295 293 298 302 302 307 308 309 307 304 308 312 314 312 322 318
302 301 300 298 297 297 300 302 303 303 301 299 296 296 299 301 301 300 302 305 307 306 303 301 301 300 301 304 307 305 302 303 306 311 315 312 320 320
300 299 299 299 301 304 305 305 304 302 300 298 296 296 298 299 299 298 297 298 300 303 305 302 302 303 310 314 319 306 304 307 306 309 313 309 316 322
299 301 303 305 307 308 307 305 304 302 301 300 298 297 296 295 296 295 292 291 294 298 302 302 302 304 310 316 320 324 306 310 311 311 316 309 314 320
303 305 307 308 308 306 305 304 305 308 307 305 304 303 300 294 293 293 293 290 291 294 297 299 299 304 308 314 318 321 316 308 311 315 324 319 315 319
308 307 306 305 304 302 303 304 307 309 307 304 303 303 302 297 293 292 293 292 287 287 290 293 297 302 305 311 314 318 317 311 300 305 315 321 329 331
304 303 303 302 302 304 306 308 310 309 306 303 303 302 300 300 299 297 295 292 290 285 286 290 291 295 301 308 313 315 318 320 313 305 306 310 314 320
Height
3110 3110 3109 3109 3107 3106 3103 3101 3098 3096 3096 3096 3092 3089 3084 3081 3076 3072 3067 3064 3060 3056 3052 3047 3043 3039 3036 3032 3027 3023 3021 3018 3016 3014 3012 3012 3012 3013
3103 3103 3104 3101 3100 3098 3095 3092 3089 3086 3082 3081 3080 3076 3073 3069 3065 3061 3057 3052 3049 3044 3039 3035 3030 3026 3022 3018 3015 3011 3008 3005 3002 3000 2998 2997 2996 2996
3098 3097 3096 3094 3092 3089 3087 3083 3079 3075 3071 3069 3065 3061 3057 3052 3047 3042 3036 3032 3030 3026 3023 3020 3016 3013 3010 3005 3001 2998 2995 2991 2988 2985 2983 2981 2980 2979
3091 3090 3089 3087 3083 3081 3077 3073 3070 3066 3061 3057 3053 3049 3045 3040 3035 3030 3025 3021 3016 3012 3008 3004 3001 2996 2994 2990 2986 2983 2980 2978 2975 2972 2968 2968 2966 2965
3083 3082 3081 3079 3075 3071 3068 3064 3059 3056 3052 3046 3041 3037 3032 3028 3023 3019 3013 3008 3005 3001 2998 2995 2989 2984 2981 2977 2973 2969 2966 2963 2961 2959 2956 2955 2952 2950
3075 3074 3072 3069 3066 3061 3058 3054 3049 3045 3042 3037 3031 3024 3021 3018 3012 3007 3003 2996 2993 2991 2988 2984 2981 2977 2973 2967 2962 2959 2955 2951 2948 2946 2944 2943 2940 2938
3066 3065 3063 3059 3056 3052 3048 3042 3038 3033 3029 3025 3019 3015 3010 3006 3002 2996 2991 2985 2980 2979 2977 2975 2972 2968 2965 2960 2954 2950 2946 2942 2939 2936 2934 2932 2929 2927
3057 3055 3053 3050 3045 3041 3036 3032 3027 3022 3018 3014 3007 3004 2997 2993 2989 2983 2978 2975 2969 2969 2964 2964 2960 2958 2954 2951 2946 2942 2938 2934 2931 2927 2925 2922 2919 2916
3050 3047 3043 3039 3036 3033 3029 3023 3019 3016 3010 3001 2995 2992 2987 2982 2975 2972 2969 2962 2963 2962 2955 2951 2951 2947 2945 2942 2938 2935 2931 2927 2924 2920 2916 2912 2909 2905
3039 3036 3034 3031 3028 3024 3018 3015 3011 3007 3000 2996 2988 2983 2979 2973 2969 2965 2959 2956 2953 2954 2949 2942 2942 2938 2936 2934 2932 2928 2924 2920 2916 2912 2908 2904 2899 2894
3032 3028 3024 3020 3016 3014 3010 3005 2999 2997 2988 2986 2982 2973 2969 2965 2962 2958 2953 2949 2944 2945 2943 2934 2933 2929 2928 2927 2925 2922 2918 2913 2909 2905 2901 2895 2890 2884
3022 3018 3015 3012 3007 3003 2999 2994 2989 2984 2982 2978 2975 2969 2963 2958 2955 2951 2946 2941 2939 2934 2936 2929 2926 2922 2918 2918 2918 2915 2911 2907 2902 2898 2894 2888 2882 2876
3012 3011 3007 3003 3001 2994 2989 2984 2982 2979 2974 2970 2964 2961 2955 2951 2948 2944 2940 2935 2931 2929 2929 2922 2920 2917 2913 2906 2908 2907 2903 2899 2895 2891 2887 2882 2876 2869
3003 3001 2999 2994 2990 2987 2983 2977 2976 2973 2968 2962 2956 2953 2946 2942 2940 2937 2934 2930 2926 2923 2921 2917 2913 2910 2906 2902 2898 2898 2896 2892 2888 2883 2879 2875 2869 2863
2994 2992 2989 2984 2982 2980 2975 2972 2968 2964 2959 2954 2950 2944 2939 2935 2932 2930 2927 2923 2920 2917 2914 2911 2908 2905 2901 2896 2890 2889 2886 2883 2881 2876 2871 2867 2861 2855
2986 2982 2980 2976 2975 2970 2968 2963 2959 2954 2949 2944 2940 2937 2933 2930 2927 2923 2920 2917 2914 2912 2908 2905 2903 2899 2895 2890 2885 2882 2880 2874 2873 2869 2864 2860 2856 2850
2979 2976 2974 2969 2965 2963 2957 2953 2949 2944 2940 2936 2932 2929 2926 2923 2920 2917 2913 2910 2906 2904 2903 2900 2895 2891 2887 2884 2879 2877 2873 2869 2867 2862 2858 2854 2851 2845
2972 2967 2964 2961 2957 2953 2948 2943 2939 2935 2932 2928 2925 2922 2919 2916 2913 2911 2907 2903 2900 2898 2895 2892 2889 2885 2883 2881 2876 2870 2868 2863 2861 2857 2854 2847 2845 2842
2963 2959 2955 2951 2946 2941 2936 2932 2930 2927 2923 2920 2917 2914 2911 2908 2905 2902 2900 2897 2895 2892 2889 2886 2882 2879 2875 2872 2872 2866 2860 2859 2855 2853 2849 2845 2840 2837
2953 2949 2944 2939 2934 2930 2927 2924 2921 2918 2915 2911 2908 2905 2902 2899 2897 2895 2893 2890 2888 2886 2884 2880 2877 2874 2871 2867 2863 2864 2858 2853 2850 2847 2845 2842 2837 2833
2943 2938 2933 2928 2925 2922 2919 2916 2912 2909 2905 2902 2899 2896 2894 2890 2888 2886 2884 2882 2880 2878 2877 2875 2872 2869 2866 2863 2860 2857 2856 2851 2846 2842 2840 2837 2834 2832
2930 2927 2924 2921 2918 2915 2911 2907 2904 2900 2897 2894 2891 2889 2886 2883 2880 2878 2877 2874 2873 2872 2870 2869 2866 2864 2862 2859 2856 2853 2850 2849 2845 2841 2837 2834 2831 2828
2921 2918 2916 2913 2910 2906 2902 2899 2896 2893 2890 2886 2884 2881 2879 2876 2873 2871 2869 2867 2866 2865 2864 2862 2861 2859 2857 2855 2852 2849 2847 2844 2841 2839 2836 2833 2831 2828